Showing default

ESEO, 43792

Orbit data source: Space-Track

ESEO, 43792 is a payload satellite owned by ESA (ESA) in SSO that was launched on Mon, 03 Dec 2018 UTC via an FALCON 9 launch vehicle from the Air Force Western Test Range (AFWTR). Payloads include a variety of satellites, spacecraft, and rockets equipped with specific instruments for various scientific and technological missions. These include communications satellites like Starlink; space stations such as the ISS; scientific satellites like the Hubble; Earth observation satellites from companies like Planet Labs, Umbra, and HawkEye 360; GPS; miniature CubeSats for education and research; and military/defense satellites.

Loading next visibility...
ESEO details
Identifier
43792, 2018-099AL
Orbit
SSO
Last TLE update20 hours ago
Origin
Flag of ESAESA (ESA)
ManufacturerESTEC/OHBI
MissionOperational Civil Technology
Bus & MotorESEO, Unknown motor
Mass120 kg wet, 120 kg dry
Launch date (UTC)
2018-12-03 (6 years ago)
Launch vehicle
FALCON 9
Launch site
Air Force Western Test Range (AFWTR)
Object type
Payload
Rocket body
Debris
Shape & HBRBox, 0.63 m
Radar Cross Section0.262 m², Medium (>0.1 m² and < 1m²)

Expand to show TLE details & history

TLE from 20 hours ago
0 ESEO
1 43792U 18099AL  24360.66085433  .00004439  00000-0  34790-3 0  9998
2 43792  97.4808  48.5545 0008524  14.1777 345.9686 15.01443061330912
Epoch: 2024-12-25T15:51Z
Definitive object data (Epoch: 2024-12-25T15:51:37.814Z)
Latitude0.00005°
Longitude75.99553°
Altitude559.768 km
Speed7.585 km/s
True Right ascension03h 14m 13s
True Declination0° 00' 00"
Sunlit
Object was in full shadow at TLE epoch
Visualization TLE readout
Latitude-14.92253°
Longitude-105.1937°
Altitude574.508 km
Speed7.569 km/s
Apparent Right ascension18h 10m 08s
Apparent Declination-44° 53' 46"
Sunlit
Object is in daylight
Visualization observer readout
Local Sidereal Time11:16:34
Azimuth122.326° SE
Elevation-35.362°
Doppler factor1
Orbital elements
Apogee altitude565.353 km
Perigee altitude553.526 km
Semi-major axis6,937.576 km
Eccentricity0.0008524
Inclination97.4808°
RAAN48.5545°
Arg. of periapsis14.1777°
True anomaly345.94489°
Mean anomaly345.9686°
Eccentric anomaly345.95675°
Mean motion3.75605 °/min
BSTAR0.0003479
Orbital period95.85 mins
Loading maneuver chart data...
Loading historical data...
Loading historical data...
Loading historical data...
Loading historical data...
Loading historical data...
Loading historical data...
Loading historical data...

ESEO Visibility forecast

Observer location: undefined°, undefined

Span
Click to sort rows by Start time (UTC) header in descending order
Start Az.
Max El. time (UTC)
Max El. Az.
Max El.
End time (UTC)
End Az.
7 mins2024-12-26 16:25:08.769Z6.797° NNE2024-12-26 16:28:08.769Z298.076° NW43.799°2024-12-26 16:32:08.769Z199.36° SSW
6 mins2024-12-27 03:11:08.769Z147.021° SSE2024-12-27 03:14:08.769Z53.66° ENE38.546°2024-12-27 03:17:08.769Z359.213° N
|